SKK76 DXXX-FNLU

Flight info

Callsign SKK76
Flight time 2h 43m
Altitude 35000
Route SABGO2S SABGO DCT EBUSO UR983 GAPAK UA400 NATAR DCT LD854
Aircraft B38M/M-SDE1FGHILORVWXY/HB1

Departure

Time 2026-04-19 17:06
Airport Lomé–Tokoin International Airport (DXXX)

Arrival

Time 2026-04-19 19:50
Airport Quatro de Fevereiro International Airport (FNLU)
Time Latitude Longitude Altitude Speed Heading
2026-04-19 16:56 6.17005 1.25419 77 ft 0 kts 310°
2026-04-19 16:56 6.16997 1.25428 66 ft 4 kts 312°
2026-04-19 16:56 6.16978 1.25447 72 ft 4 kts 317°
2026-04-19 16:57 6.16957 1.25464 69 ft 4 kts 326°
2026-04-19 16:57 6.16934 1.25476 72 ft 4 kts 349°
2026-04-19 16:57 6.16914 1.25474 73 ft 1 kts 38°
2026-04-19 16:57 6.16910 1.25471 73 ft 0 kts 38°
2026-04-19 17:02 6.16911 1.25471 73 ft 0 kts 38°
2026-04-19 17:02 6.16925 1.25482 71 ft 8 kts 38°
2026-04-19 17:02 6.16991 1.25537 77 ft 15 kts 40°
2026-04-19 17:03 6.17079 1.25610 77 ft 17 kts 38°
2026-04-19 17:03 6.17177 1.25690 77 ft 19 kts 40°
2026-04-19 17:03 6.17284 1.25775 77 ft 20 kts 39°
2026-04-19 17:03 6.17396 1.25868 77 ft 22 kts 38°
2026-04-19 17:04 6.17517 1.25964 71 ft 23 kts 39°
2026-04-19 17:04 6.17643 1.26067 77 ft 24 kts 39°
2026-04-19 17:04 6.17706 1.26146 75 ft 11 kts 115°
2026-04-19 17:04 6.17660 1.26214 74 ft 13 kts 128°
2026-04-19 17:05 6.17586 1.26221 74 ft 13 kts 216°
2026-04-19 17:05 6.17505 1.26157 76 ft 20 kts 219°
2026-04-19 17:05 6.17230 1.25939 70 ft 89 kts 218°
2026-04-19 17:05 6.16556 1.25401 77 ft 156 kts 218°
2026-04-19 17:06 6.15604 1.24626 334 ft 191 kts 221°
2026-04-19 17:06 6.14414 1.23893 1050 ft 197 kts 198°
2026-04-19 17:06 6.13116 1.23849 2222 ft 191 kts 164°
2026-04-19 17:06 6.11996 1.24652 2657 ft 217 kts 128°
2026-04-19 17:07 6.11397 1.26115 3211 ft 239 kts 101°
2026-04-19 17:07 6.11169 1.27788 4088 ft 243 kts 99°
2026-04-19 17:07 6.10728 1.29430 5046 ft 249 kts 110°
2026-04-19 17:07 6.10029 1.31033 6009 ft 252 kts 114°
2026-04-19 17:08 6.09273 1.32641 6852 ft 258 kts 112°
2026-04-19 17:08 6.08558 1.34341 7506 ft 270 kts 107°
2026-04-19 17:08 6.08344 1.36192 8411 ft 266 kts 84°
2026-04-19 17:08 6.08571 1.38037 9360 ft 268 kts 83°
2026-04-19 17:09 6.08687 1.39912 10150 ft 275 kts 96°
2026-04-19 17:09 6.08056 1.41793 10553 ft 298 kts 118°
2026-04-19 17:09 6.06835 1.43567 10892 ft 319 kts 122°
2026-04-19 17:09 6.05550 1.45451 11286 ft 334 kts 122°
2026-04-19 17:10 6.04214 1.47398 11871 ft 341 kts 122°
2026-04-19 17:10 6.02855 1.49367 12580 ft 345 kts 122°
2026-04-19 17:10 6.01476 1.51363 13232 ft 350 kts 123°
2026-04-19 17:10 6.00079 1.53384 13858 ft 354 kts 123°
2026-04-19 17:11 5.98666 1.55425 14414 ft 358 kts 123°
2026-04-19 17:11 5.97235 1.57492 14979 ft 362 kts 123°
2026-04-19 17:11 5.95791 1.59578 15522 ft 366 kts 123°
2026-04-19 17:11 5.94330 1.61688 16050 ft 370 kts 123°
2026-04-19 17:12 5.92853 1.63822 16567 ft 374 kts 124°
2026-04-19 17:12 5.91360 1.65979 17077 ft 378 kts 124°
2026-04-19 17:12 5.89853 1.68154 17575 ft 381 kts 124°
2026-04-19 17:12 5.88331 1.70351 18053 ft 385 kts 124°
2026-04-19 17:13 5.86797 1.72566 18470 ft 388 kts 124°
2026-04-19 17:13 5.85262 1.74762 18895 ft 391 kts 127°
2026-04-19 17:13 5.83286 1.76689 19342 ft 394 kts 144°
2026-04-19 17:13 5.80871 1.77930 19742 ft 399 kts 161°
2026-04-19 17:14 5.78146 1.78489 20139 ft 403 kts 173°
2026-04-19 17:14 5.75349 1.78809 20511 ft 406 kts 173°
2026-04-19 17:14 5.72524 1.79088 20920 ft 409 kts 174°
2026-04-19 17:14 5.69685 1.79343 21316 ft 411 kts 174°
2026-04-19 17:15 5.66827 1.79585 21716 ft 413 kts 175°
2026-04-19 17:15 5.63953 1.79818 22096 ft 416 kts 175°
2026-04-19 17:15 5.61058 1.80049 22477 ft 418 kts 175°
2026-04-19 17:15 5.58150 1.80280 22854 ft 420 kts 175°
2026-04-19 17:16 5.55231 1.80541 23208 ft 423 kts 171°
2026-04-19 17:16 5.52417 1.81380 23512 ft 423 kts 154°
2026-04-19 17:16 5.49927 1.82953 23803 ft 425 kts 143°
2026-04-19 17:16 5.47583 1.84771 24079 ft 428 kts 142°
2026-04-19 17:17 5.45239 1.86624 24356 ft 430 kts 142°
2026-04-19 17:17 5.42892 1.88502 24642 ft 432 kts 142°
2026-04-19 17:17 5.40541 1.90398 24926 ft 435 kts 142°
2026-04-19 17:17 5.38181 1.92309 25207 ft 437 kts 142°
2026-04-19 17:18 5.35808 1.94230 25494 ft 440 kts 142°
2026-04-19 17:18 5.33420 1.96162 25766 ft 442 kts 142°
2026-04-19 17:18 5.31023 1.98101 26034 ft 444 kts 142°
2026-04-19 17:18 5.28610 2.00054 26316 ft 447 kts 142°
2026-04-19 17:19 5.26185 2.02016 26598 ft 449 kts 142°
2026-04-19 17:19 5.23750 2.03985 26871 ft 451 kts 142°
2026-04-19 17:19 5.21305 2.05963 27149 ft 453 kts 142°
2026-04-19 17:19 5.18850 2.07949 27426 ft 455 kts 142°
2026-04-19 17:20 5.16380 2.09947 27697 ft 457 kts 142°
2026-04-19 17:20 5.13902 2.11950 27960 ft 459 kts 142°
2026-04-19 17:20 5.11409 2.13966 28215 ft 461 kts 142°
2026-04-19 17:20 5.08908 2.15987 28469 ft 463 kts 142°
2026-04-19 17:21 5.06392 2.18022 28721 ft 465 kts 142°
2026-04-19 17:21 5.03865 2.20063 28974 ft 467 kts 142°
2026-04-19 17:21 5.01328 2.22111 29217 ft 470 kts 143°
2026-04-19 17:21 4.98774 2.24173 29467 ft 472 kts 143°
2026-04-19 17:22 4.96215 2.26239 29722 ft 473 kts 143°
2026-04-19 17:22 4.93681 2.28284 29934 ft 475 kts 143°
2026-04-19 17:22 4.91100 2.30368 30147 ft 477 kts 143°
2026-04-19 17:22 4.88513 2.32456 30394 ft 477 kts 143°
2026-04-19 17:23 4.85926 2.34544 30627 ft 478 kts 143°
2026-04-19 17:23 4.83331 2.36637 30857 ft 479 kts 143°
2026-04-19 17:23 4.80736 2.38732 31088 ft 480 kts 143°
2026-04-19 17:23 4.78133 2.40832 31318 ft 481 kts 143°
2026-04-19 17:24 4.75525 2.42936 31557 ft 481 kts 143°
2026-04-19 17:24 4.72920 2.45037 31843 ft 480 kts 143°
2026-04-19 17:24 4.71202 2.46422 32048 ft 479 kts 143°
2026-04-19 17:24 4.67737 2.49216 32479 ft 477 kts 143°
2026-04-19 17:25 4.66027 2.50595 32692 ft 475 kts 143°
2026-04-19 17:25 4.63456 2.52668 33017 ft 473 kts 143°
2026-04-19 17:25 4.60895 2.54733 33346 ft 471 kts 143°
2026-04-19 17:25 4.58350 2.56785 33678 ft 469 kts 143°
2026-04-19 17:26 4.54951 2.59525 34052 ft 467 kts 143°
2026-04-19 17:26 4.52425 2.61562 34322 ft 466 kts 143°
2026-04-19 17:26 4.50754 2.62908 34502 ft 464 kts 143°
2026-04-19 17:26 4.48238 2.64934 34738 ft 464 kts 142°
2026-04-19 17:27 4.43216 2.68981 34774 ft 461 kts 142°
2026-04-19 17:27 4.38215 2.73010 34782 ft 461 kts 142°
2026-04-19 17:28 4.33212 2.77039 34779 ft 461 kts 142°
2026-04-19 17:28 4.28209 2.81069 34777 ft 461 kts 142°
2026-04-19 17:29 4.23206 2.85097 34780 ft 462 kts 142°
2026-04-19 17:29 4.18200 2.89127 34782 ft 462 kts 142°
2026-04-19 17:30 4.13191 2.93159 34783 ft 462 kts 142°
2026-04-19 17:30 4.08182 2.97191 34783 ft 462 kts 142°
2026-04-19 17:31 4.03172 3.01222 34782 ft 462 kts 142°
2026-04-19 17:31 3.98204 3.05235 34784 ft 462 kts 142°
2026-04-19 17:32 3.93210 3.09285 34785 ft 462 kts 142°
2026-04-19 17:32 3.88213 3.13335 34783 ft 462 kts 142°
2026-04-19 17:33 3.83217 3.17383 34783 ft 462 kts 142°
2026-04-19 17:33 3.78222 3.21429 34783 ft 462 kts 142°
2026-04-19 17:34 3.73222 3.25480 34786 ft 462 kts 142°
2026-04-19 17:34 3.68221 3.29530 34788 ft 463 kts 142°
2026-04-19 17:35 3.63218 3.33582 34787 ft 463 kts 142°
2026-04-19 17:35 3.58214 3.37634 34785 ft 463 kts 142°
2026-04-19 17:36 3.53213 3.41682 34784 ft 463 kts 142°
2026-04-19 17:36 3.48203 3.45737 34790 ft 463 kts 142°
2026-04-19 17:37 3.43193 3.49792 34789 ft 463 kts 142°
2026-04-19 17:37 3.38184 3.53845 34785 ft 463 kts 142°
2026-04-19 17:38 3.33176 3.57898 34791 ft 463 kts 142°
2026-04-19 17:38 3.28201 3.61921 34792 ft 463 kts 142°
2026-04-19 17:39 3.23183 3.65981 34795 ft 463 kts 142°
2026-04-19 17:39 3.18179 3.70029 34793 ft 463 kts 142°
2026-04-19 17:40 3.13168 3.74080 34794 ft 463 kts 142°
2026-04-19 17:40 3.08160 3.78130 34793 ft 463 kts 142°
2026-04-19 17:41 3.03153 3.82177 34796 ft 462 kts 142°
2026-04-19 17:41 2.98152 3.86220 34796 ft 462 kts 142°
2026-04-19 17:42 2.93149 3.90264 34794 ft 462 kts 142°
2026-04-19 17:42 2.88150 3.94305 34793 ft 462 kts 142°
2026-04-19 17:43 2.83143 3.98349 34793 ft 462 kts 142°
2026-04-19 17:43 2.78141 4.02393 34794 ft 462 kts 142°
2026-04-19 17:44 2.73134 4.06438 34800 ft 462 kts 142°
2026-04-19 17:44 2.68131 4.10479 34795 ft 462 kts 142°
2026-04-19 17:45 2.63128 4.14519 34795 ft 462 kts 142°
2026-04-19 17:45 2.58123 4.18563 34798 ft 462 kts 142°
2026-04-19 17:46 2.53119 4.22602 34800 ft 462 kts 142°
2026-04-19 17:46 2.48118 4.26641 34799 ft 462 kts 142°
2026-04-19 17:47 2.43145 4.30656 34799 ft 463 kts 142°
2026-04-19 17:47 2.38135 4.34701 34799 ft 463 kts 142°
2026-04-19 17:48 2.33126 4.38745 34800 ft 463 kts 142°
2026-04-19 17:48 2.28112 4.42791 34799 ft 463 kts 141°
2026-04-19 17:49 2.23095 4.46842 34799 ft 464 kts 141°
2026-04-19 17:49 2.18073 4.50893 34801 ft 464 kts 141°
2026-04-19 17:50 2.13053 4.54945 34802 ft 464 kts 141°
2026-04-19 17:50 2.08035 4.58993 34802 ft 464 kts 141°
2026-04-19 17:51 2.03016 4.63043 34802 ft 464 kts 141°
2026-04-19 17:51 1.97993 4.67095 34805 ft 464 kts 141°
2026-04-19 17:52 1.92971 4.71146 34804 ft 464 kts 141°
2026-04-19 17:52 1.87949 4.75197 34804 ft 464 kts 141°
2026-04-19 17:53 1.82923 4.79249 34805 ft 464 kts 141°
2026-04-19 17:53 1.77928 4.83279 34803 ft 464 kts 141°
2026-04-19 17:54 1.72899 4.87334 34806 ft 464 kts 141°
2026-04-19 17:54 1.67871 4.91389 34802 ft 464 kts 141°
2026-04-19 17:55 1.62841 4.95444 34809 ft 465 kts 141°
2026-04-19 17:55 1.57775 4.99529 34808 ft 465 kts 141°
2026-04-19 17:56 1.52771 5.03563 34808 ft 465 kts 141°
2026-04-19 17:56 1.47735 5.07623 34803 ft 465 kts 141°
2026-04-19 17:57 1.42700 5.11682 34806 ft 465 kts 141°
2026-04-19 17:57 1.37662 5.15744 34806 ft 465 kts 141°
2026-04-19 17:58 1.32619 5.19808 34809 ft 465 kts 141°
2026-04-19 17:58 1.27580 5.23870 34804 ft 465 kts 141°
2026-04-19 17:59 1.22540 5.27932 34804 ft 465 kts 141°
2026-04-19 17:59 1.17502 5.31991 34812 ft 466 kts 141°
2026-04-19 18:00 1.12459 5.36055 34810 ft 466 kts 141°
2026-04-19 18:00 1.07414 5.40120 34808 ft 466 kts 141°
2026-04-19 18:01 1.02371 5.44184 34811 ft 466 kts 141°
2026-04-19 18:01 0.97323 5.48252 34813 ft 466 kts 141°
2026-04-19 18:02 0.94928 5.50418 34791 ft 464 kts 129°
2026-04-19 18:02 0.93155 5.53094 34817 ft 462 kts 116°
2026-04-19 18:02 0.90350 5.58894 34811 ft 464 kts 115°
2026-04-19 18:03 0.87609 5.64735 34814 ft 464 kts 115°
2026-04-19 18:03 0.84888 5.70586 34809 ft 464 kts 115°
2026-04-19 18:04 0.82164 5.76439 34814 ft 465 kts 115°
2026-04-19 18:04 0.79440 5.82294 34819 ft 465 kts 115°
2026-04-19 18:05 0.76713 5.88157 34813 ft 465 kts 115°
2026-04-19 18:05 0.73984 5.94021 34812 ft 465 kts 115°
2026-04-19 18:06 0.71256 5.99882 34811 ft 466 kts 115°
2026-04-19 18:06 0.68541 6.05715 34808 ft 466 kts 115°
2026-04-19 18:07 0.64444 6.14520 34801 ft 466 kts 115°
2026-04-19 18:08 0.61711 6.20397 34797 ft 466 kts 115°
2026-04-19 18:08 0.58972 6.26278 34791 ft 467 kts 115°
2026-04-19 18:09 0.56677 6.31207 34787 ft 467 kts 115°
2026-04-19 18:09 0.54727 6.35399 34784 ft 467 kts 115°
2026-04-19 18:10 0.51987 6.41286 34780 ft 467 kts 115°
2026-04-19 18:10 0.49249 6.47168 34775 ft 467 kts 115°
2026-04-19 18:11 0.46512 6.53047 34775 ft 466 kts 115°
2026-04-19 18:11 0.43782 6.58915 34774 ft 466 kts 115°
2026-04-19 18:12 0.41516 6.63794 34772 ft 465 kts 115°
2026-04-19 18:12 0.38107 6.70513 34765 ft 464 kts 128°
2026-04-19 18:13 0.34144 6.74080 34774 ft 465 kts 143°
2026-04-19 18:13 0.28928 6.77935 34775 ft 467 kts 144°
2026-04-19 18:14 0.23649 6.81703 34780 ft 466 kts 144°
2026-04-19 18:14 0.17491 6.86049 34789 ft 467 kts 144°
2026-04-19 18:15 0.13046 6.89183 34802 ft 467 kts 144°
2026-04-19 18:15 0.07743 6.92922 34812 ft 466 kts 144°
2026-04-19 18:16 0.02441 6.96658 34815 ft 466 kts 144°
2026-04-19 18:16 -0.02823 7.00370 34816 ft 466 kts 144°
2026-04-19 18:17 -0.08128 7.04109 34815 ft 466 kts 144°
2026-04-19 18:17 -0.13461 7.07868 34815 ft 466 kts 144°
2026-04-19 18:18 -0.18725 7.11579 34814 ft 466 kts 144°
2026-04-19 18:18 -0.24019 7.15311 34812 ft 466 kts 144°
2026-04-19 18:19 -0.29312 7.19042 34813 ft 465 kts 144°
2026-04-19 18:19 -0.34603 7.22772 34814 ft 466 kts 144°
2026-04-19 18:20 -0.39899 7.26505 34813 ft 466 kts 144°
2026-04-19 18:20 -0.45188 7.30237 34814 ft 465 kts 144°
2026-04-19 18:21 -0.50479 7.33970 34813 ft 466 kts 144°
2026-04-19 18:21 -0.55768 7.37703 34813 ft 466 kts 144°
2026-04-19 18:22 -0.61061 7.41438 34812 ft 466 kts 144°
2026-04-19 18:22 -0.66353 7.45172 34814 ft 466 kts 144°
2026-04-19 18:23 -0.71646 7.48902 34816 ft 466 kts 144°
2026-04-19 18:23 -0.76944 7.52625 34816 ft 465 kts 144°
2026-04-19 18:24 -0.82240 7.56350 34813 ft 465 kts 144°
2026-04-19 18:24 -0.87521 7.60077 34812 ft 465 kts 144°
2026-04-19 18:25 -0.92809 7.63808 34811 ft 465 kts 144°
2026-04-19 18:25 -0.98060 7.67512 34812 ft 465 kts 144°
2026-04-19 18:26 -1.03343 7.71243 34813 ft 465 kts 144°
2026-04-19 18:26 -1.08624 7.74979 34814 ft 465 kts 144°
2026-04-19 18:27 -1.13901 7.78710 34814 ft 465 kts 144°
2026-04-19 18:27 -1.19182 7.82444 34817 ft 465 kts 144°
2026-04-19 18:28 -1.24455 7.86175 34816 ft 465 kts 144°
2026-04-19 18:28 -1.29732 7.89906 34814 ft 464 kts 144°
2026-04-19 18:29 -1.35011 7.93632 34815 ft 465 kts 144°
2026-04-19 18:29 -1.40296 7.97350 34815 ft 465 kts 144°
2026-04-19 18:30 -1.45579 8.01068 34815 ft 464 kts 144°
2026-04-19 18:30 -1.50863 8.04785 34814 ft 464 kts 144°
2026-04-19 18:31 -1.56144 8.08502 34819 ft 464 kts 144°
2026-04-19 18:31 -1.61425 8.12219 34817 ft 464 kts 144°
2026-04-19 18:32 -1.66708 8.15938 34816 ft 464 kts 144°
2026-04-19 18:32 -1.71993 8.19659 34817 ft 465 kts 144°
2026-04-19 18:33 -1.77272 8.23387 34816 ft 465 kts 144°
2026-04-19 18:33 -1.82522 8.27093 34820 ft 465 kts 144°
2026-04-19 18:34 -1.87805 8.30823 34815 ft 465 kts 144°
2026-04-19 18:34 -1.93087 8.34552 34821 ft 465 kts 144°
2026-04-19 18:35 -1.98372 8.38284 34819 ft 465 kts 144°
2026-04-19 18:35 -2.03662 8.42019 34819 ft 465 kts 144°
2026-04-19 18:36 -2.08947 8.45752 34822 ft 465 kts 144°
2026-04-19 18:36 -2.14233 8.49485 34817 ft 465 kts 144°
2026-04-19 18:37 -2.19520 8.53217 34818 ft 465 kts 144°
2026-04-19 18:37 -2.24808 8.56953 34820 ft 465 kts 144°
2026-04-19 18:38 -2.30100 8.60690 34820 ft 466 kts 144°
2026-04-19 18:38 -2.35391 8.64427 34820 ft 466 kts 144°
2026-04-19 18:39 -2.40691 8.68172 34823 ft 466 kts 144°
2026-04-19 18:39 -2.45985 8.71912 34822 ft 466 kts 144°
2026-04-19 18:40 -2.51284 8.75656 34823 ft 466 kts 144°
2026-04-19 18:40 -2.56585 8.79402 34824 ft 466 kts 144°
2026-04-19 18:41 -2.61883 8.83146 34823 ft 466 kts 144°
2026-04-19 18:41 -2.67183 8.86892 34824 ft 466 kts 144°
2026-04-19 18:42 -2.72483 8.90639 34824 ft 466 kts 144°
2026-04-19 18:42 -2.77781 8.94384 34826 ft 466 kts 144°
2026-04-19 18:43 -2.83035 8.98099 34826 ft 466 kts 144°
2026-04-19 18:43 -2.88324 9.01838 34828 ft 466 kts 144°
2026-04-19 18:44 -2.93613 9.05579 34826 ft 465 kts 144°
2026-04-19 18:44 -2.98900 9.09319 34830 ft 465 kts 144°
2026-04-19 18:45 -3.04186 9.13058 34827 ft 465 kts 144°
2026-04-19 18:45 -3.09468 9.16796 34832 ft 465 kts 144°
2026-04-19 18:46 -3.14743 9.20528 34833 ft 464 kts 144°
2026-04-19 18:46 -3.20018 9.24260 34831 ft 464 kts 144°
2026-04-19 18:47 -3.25289 9.27992 34834 ft 464 kts 144°
2026-04-19 18:47 -3.29668 9.31091 34835 ft 464 kts 144°
2026-04-19 18:48 -3.35826 9.35449 34833 ft 464 kts 144°
2026-04-19 18:48 -3.41094 9.39179 34837 ft 464 kts 144°
2026-04-19 18:49 -3.46366 9.42913 34835 ft 464 kts 144°
2026-04-19 18:49 -3.51636 9.46646 34839 ft 464 kts 144°
2026-04-19 18:50 -3.56907 9.50379 34838 ft 464 kts 144°
2026-04-19 18:50 -3.62145 9.54082 34834 ft 464 kts 144°
2026-04-19 18:51 -3.67415 9.57823 34837 ft 464 kts 144°
2026-04-19 18:51 -3.72687 9.61559 34837 ft 464 kts 144°
2026-04-19 18:52 -3.80593 9.67163 34839 ft 464 kts 144°
2026-04-19 18:52 -3.85868 9.70902 34840 ft 464 kts 144°
2026-04-19 18:53 -3.91140 9.74639 34839 ft 465 kts 144°
2026-04-19 18:53 -3.96416 9.78381 34839 ft 465 kts 144°
2026-04-19 18:54 -4.01689 9.82121 34838 ft 465 kts 144°
2026-04-19 18:54 -4.06965 9.85864 34839 ft 465 kts 144°
2026-04-19 18:55 -4.12243 9.89607 34839 ft 465 kts 144°
2026-04-19 18:55 -4.17515 9.93348 34839 ft 464 kts 144°
2026-04-19 18:56 -4.22785 9.97089 34841 ft 465 kts 144°
2026-04-19 18:56 -4.28061 10.00834 34844 ft 465 kts 144°
2026-04-19 18:57 -4.33337 10.04579 34846 ft 465 kts 144°
2026-04-19 18:57 -4.38615 10.08326 34849 ft 465 kts 144°
2026-04-19 18:58 -4.43888 10.12072 34847 ft 465 kts 144°
2026-04-19 18:58 -4.49169 10.15822 34849 ft 465 kts 144°
2026-04-19 18:59 -4.54446 10.19572 34846 ft 465 kts 144°
2026-04-19 18:59 -4.59692 10.23299 34849 ft 465 kts 144°
2026-04-19 19:00 -4.64971 10.27052 34850 ft 465 kts 144°
2026-04-19 19:00 -4.70254 10.30808 34852 ft 465 kts 144°
2026-04-19 19:01 -4.75538 10.34563 34852 ft 465 kts 144°
2026-04-19 19:01 -4.80818 10.38318 34851 ft 465 kts 144°
2026-04-19 19:02 -4.85240 10.41463 34852 ft 465 kts 144°
2026-04-19 19:02 -4.90514 10.45215 34848 ft 465 kts 144°
2026-04-19 19:03 -4.95750 10.48940 34851 ft 464 kts 144°
2026-04-19 19:03 -5.01012 10.52685 34850 ft 464 kts 144°
2026-04-19 19:04 -5.06283 10.56437 34857 ft 464 kts 144°
2026-04-19 19:04 -5.11544 10.60184 34862 ft 464 kts 144°
2026-04-19 19:05 -5.16811 10.63933 34857 ft 464 kts 144°
2026-04-19 19:05 -5.22069 10.67677 34859 ft 463 kts 144°
2026-04-19 19:06 -5.27327 10.71423 34857 ft 464 kts 144°
2026-04-19 19:06 -5.32603 10.75143 34857 ft 463 kts 144°
2026-04-19 19:07 -5.37882 10.78852 34858 ft 463 kts 144°
2026-04-19 19:07 -5.43161 10.82562 34856 ft 463 kts 144°
2026-04-19 19:08 -5.48440 10.86272 34855 ft 463 kts 144°
2026-04-19 19:08 -5.53718 10.89983 34859 ft 463 kts 144°
2026-04-19 19:09 -5.58996 10.93695 34856 ft 463 kts 144°
2026-04-19 19:09 -5.64244 10.97387 34857 ft 464 kts 145°
2026-04-19 19:10 -5.69521 11.01100 34856 ft 463 kts 145°
2026-04-19 19:10 -5.74804 11.04818 34857 ft 464 kts 145°
2026-04-19 19:11 -5.80091 11.08538 34857 ft 464 kts 145°
2026-04-19 19:11 -5.85374 11.12259 34855 ft 464 kts 145°
2026-04-19 19:12 -5.90655 11.15978 34856 ft 464 kts 145°
2026-04-19 19:12 -5.95949 11.19707 34856 ft 465 kts 145°
2026-04-19 19:13 -6.01242 11.23436 34856 ft 465 kts 145°
2026-04-19 19:13 -6.06534 11.27165 34856 ft 465 kts 145°
2026-04-19 19:14 -6.11830 11.30898 34857 ft 464 kts 145°
2026-04-19 19:14 -6.17117 11.34626 34856 ft 464 kts 145°
2026-04-19 19:15 -6.22406 11.38356 34858 ft 465 kts 145°
2026-04-19 19:15 -6.27698 11.42088 34854 ft 465 kts 145°
2026-04-19 19:16 -6.32995 11.45826 34856 ft 465 kts 145°
2026-04-19 19:16 -6.38295 11.49566 34857 ft 466 kts 145°
2026-04-19 19:17 -6.43601 11.53313 34856 ft 466 kts 145°
2026-04-19 19:17 -6.48910 11.57063 34858 ft 467 kts 145°
2026-04-19 19:18 -6.54222 11.60815 34858 ft 467 kts 144°
2026-04-19 19:18 -6.59506 11.64547 34860 ft 467 kts 145°
2026-04-19 19:19 -6.64824 11.68306 34860 ft 467 kts 145°
2026-04-19 19:20 -6.72795 11.73941 34859 ft 467 kts 144°
2026-04-19 19:20 -6.78114 11.77702 34859 ft 467 kts 144°
2026-04-19 19:21 -6.83437 11.81467 34859 ft 468 kts 144°
2026-04-19 19:21 -6.88761 11.85235 34858 ft 468 kts 144°
2026-04-19 19:22 -6.94086 11.89004 34859 ft 468 kts 144°
2026-04-19 19:22 -6.99412 11.92774 34860 ft 468 kts 144°
2026-04-19 19:23 -7.04742 11.96548 34861 ft 468 kts 144°
2026-04-19 19:23 -7.10071 12.00323 34858 ft 468 kts 144°
2026-04-19 19:24 -7.15402 12.04100 34856 ft 469 kts 144°
2026-04-19 19:24 -7.20717 12.07906 34833 ft 468 kts 141°
2026-04-19 19:24 -7.23182 12.09994 34336 ft 462 kts 139°
2026-04-19 19:25 -7.25603 12.12084 33468 ft 467 kts 139°
2026-04-19 19:25 -7.28106 12.14251 32563 ft 470 kts 139°
2026-04-19 19:25 -7.30583 12.16395 31830 ft 469 kts 139°
2026-04-19 19:25 -7.33055 12.18535 31092 ft 468 kts 140°
2026-04-19 19:26 -7.35528 12.20676 30327 ft 469 kts 140°
2026-04-19 19:26 -7.37994 12.22811 29655 ft 466 kts 140°
2026-04-19 19:26 -7.40444 12.24932 28988 ft 462 kts 140°
2026-04-19 19:26 -7.42832 12.27000 28404 ft 457 kts 140°
2026-04-19 19:27 -7.45227 12.29075 27833 ft 452 kts 140°
2026-04-19 19:27 -7.47604 12.31134 27264 ft 448 kts 140°
2026-04-19 19:27 -7.49959 12.33175 26692 ft 445 kts 140°
2026-04-19 19:27 -7.52297 12.35200 26122 ft 442 kts 140°
2026-04-19 19:28 -7.54620 12.37214 25558 ft 439 kts 140°
2026-04-19 19:28 -7.56930 12.39216 24995 ft 437 kts 140°
2026-04-19 19:28 -7.59229 12.41210 24439 ft 435 kts 140°
2026-04-19 19:28 -7.61516 12.43192 23885 ft 433 kts 139°
2026-04-19 19:29 -7.63800 12.45173 23305 ft 432 kts 139°
2026-04-19 19:29 -7.66077 12.47148 22670 ft 431 kts 139°
2026-04-19 19:29 -7.68340 12.49112 22113 ft 427 kts 139°
2026-04-19 19:29 -7.70585 12.51060 21572 ft 424 kts 139°
2026-04-19 19:30 -7.72812 12.52992 21039 ft 421 kts 139°
2026-04-19 19:30 -7.75023 12.54910 20512 ft 418 kts 139°
2026-04-19 19:30 -7.77220 12.56817 19988 ft 416 kts 139°
2026-04-19 19:30 -7.79406 12.58715 19466 ft 413 kts 139°
2026-04-19 19:31 -7.81580 12.60602 18955 ft 412 kts 139°
2026-04-19 19:31 -7.83745 12.62482 18443 ft 410 kts 139°
2026-04-19 19:31 -7.85903 12.64356 17890 ft 409 kts 139°
2026-04-19 19:31 -7.88052 12.66223 17338 ft 406 kts 139°
2026-04-19 19:32 -7.90186 12.68077 16828 ft 403 kts 139°
2026-04-19 19:32 -7.92305 12.69918 16331 ft 401 kts 139°
2026-04-19 19:32 -7.94408 12.71746 15837 ft 398 kts 139°
2026-04-19 19:32 -7.96497 12.73561 15351 ft 395 kts 139°
2026-04-19 19:33 -7.98549 12.75345 14871 ft 393 kts 139°
2026-04-19 19:33 -8.00615 12.77141 14392 ft 391 kts 139°
2026-04-19 19:33 -8.02669 12.78927 13914 ft 389 kts 139°
2026-04-19 19:33 -8.04717 12.80707 13422 ft 388 kts 139°
2026-04-19 19:34 -8.06753 12.82478 12914 ft 385 kts 139°
2026-04-19 19:34 -8.08778 12.84238 12425 ft 383 kts 139°
2026-04-19 19:34 -8.10786 12.85985 11990 ft 379 kts 139°
2026-04-19 19:34 -8.12774 12.87715 11536 ft 376 kts 139°
2026-04-19 19:35 -8.14738 12.89424 11210 ft 369 kts 139°
2026-04-19 19:35 -8.16655 12.91092 11043 ft 358 kts 138°
2026-04-19 19:35 -8.18505 12.92701 10969 ft 345 kts 138°
2026-04-19 19:35 -8.20290 12.94254 10863 ft 333 kts 138°
2026-04-19 19:36 -8.22014 12.95756 10726 ft 323 kts 138°
2026-04-19 19:36 -8.23690 12.97215 10603 ft 314 kts 138°
2026-04-19 19:36 -8.25322 12.98635 10449 ft 305 kts 138°
2026-04-19 19:36 -8.26906 13.00015 10323 ft 296 kts 138°
2026-04-19 19:37 -8.28443 13.01355 10190 ft 288 kts 139°
2026-04-19 19:37 -8.29941 13.02659 10015 ft 281 kts 138°
2026-04-19 19:37 -8.31416 13.03944 9737 ft 280 kts 138°
2026-04-19 19:37 -8.32885 13.05224 9433 ft 278 kts 138°
2026-04-19 19:38 -8.34341 13.06492 9144 ft 276 kts 138°
2026-04-19 19:38 -8.35784 13.07749 8860 ft 273 kts 138°
2026-04-19 19:38 -8.37213 13.08995 8589 ft 270 kts 138°
2026-04-19 19:38 -8.38627 13.10228 8320 ft 267 kts 138°
2026-04-19 19:39 -8.40025 13.11446 8055 ft 264 kts 138°
2026-04-19 19:39 -8.41405 13.12650 7791 ft 261 kts 137°
2026-04-19 19:39 -8.42793 13.13860 7530 ft 267 kts 138°
2026-04-19 19:39 -8.44210 13.15094 7255 ft 270 kts 138°
2026-04-19 19:40 -8.45636 13.16340 6993 ft 271 kts 138°
2026-04-19 19:40 -8.47046 13.17570 6713 ft 272 kts 138°
2026-04-19 19:40 -8.48474 13.18814 6444 ft 270 kts 138°
2026-04-19 19:40 -8.49894 13.20053 6170 ft 269 kts 138°
2026-04-19 19:41 -8.51297 13.21277 5957 ft 263 kts 138°
2026-04-19 19:41 -8.52662 13.22468 5825 ft 255 kts 138°
2026-04-19 19:41 -8.53948 13.23591 5700 ft 247 kts 138°
2026-04-19 19:41 -8.55227 13.24708 5608 ft 237 kts 138°
2026-04-19 19:42 -8.56463 13.25786 5489 ft 233 kts 138°
2026-04-19 19:42 -8.57681 13.26856 5339 ft 231 kts 136°
2026-04-19 19:42 -8.58859 13.27969 5079 ft 233 kts 135°
2026-04-19 19:42 -8.60041 13.29090 4801 ft 233 kts 136°
2026-04-19 19:43 -8.61228 13.30211 4532 ft 233 kts 136°
2026-04-19 19:43 -8.62416 13.31331 4235 ft 233 kts 136°
2026-04-19 19:43 -8.63600 13.32448 3952 ft 233 kts 137°
2026-04-19 19:43 -8.64781 13.33562 3688 ft 231 kts 137°
2026-04-19 19:44 -8.65938 13.34654 3545 ft 225 kts 137°
2026-04-19 19:44 -8.67082 13.35731 3411 ft 225 kts 137°
2026-04-19 19:44 -8.68222 13.36804 3248 ft 222 kts 137°
2026-04-19 19:44 -8.69403 13.37796 3033 ft 218 kts 153°
2026-04-19 19:45 -8.70829 13.38095 2970 ft 206 kts 186°
2026-04-19 19:45 -8.72133 13.37675 3004 ft 191 kts 208°
2026-04-19 19:45 -8.73236 13.36910 3076 ft 194 kts 221°
2026-04-19 19:45 -8.74195 13.35947 3055 ft 195 kts 228°
2026-04-19 19:46 -8.75101 13.34925 2987 ft 195 kts 227°
2026-04-19 19:46 -8.76003 13.33939 2773 ft 187 kts 226°
2026-04-19 19:46 -8.76876 13.32997 2572 ft 180 kts 226°
2026-04-19 19:46 -8.77720 13.32089 2334 ft 172 kts 227°
2026-04-19 19:47 -8.78512 13.31238 2149 ft 162 kts 226°
2026-04-19 19:47 -8.79264 13.30431 1959 ft 152 kts 226°
2026-04-19 19:47 -8.79976 13.29666 1741 ft 147 kts 225°
2026-04-19 19:47 -8.80671 13.28911 1563 ft 146 kts 225°
2026-04-19 19:48 -8.81362 13.28167 1370 ft 145 kts 225°
2026-04-19 19:48 -8.82050 13.27428 1192 ft 144 kts 225°
2026-04-19 19:48 -8.82732 13.26687 1066 ft 144 kts 225°
2026-04-19 19:48 -8.83417 13.25948 875 ft 145 kts 224°
2026-04-19 19:49 -8.84106 13.25207 700 ft 144 kts 226°
2026-04-19 19:49 -8.84796 13.24457 474 ft 146 kts 226°
2026-04-19 19:49 -8.85498 13.23716 290 ft 146 kts 225°
2026-04-19 19:49 -8.86122 13.23052 242 ft 100 kts 227°
2026-04-19 19:50 -8.86436 13.22716 244 ft 38 kts 225°
2026-04-19 19:50 -8.86555 13.22589 245 ft 36 kts 227°
2026-04-19 19:50 -8.86701 13.22430 245 ft 20 kts 240°
2026-04-19 19:50 -8.86727 13.22259 244 ft 19 kts 234°
2026-04-19 19:51 -8.86834 13.22238 243 ft 18 kts 121°
2026-04-19 19:51 -8.86786 13.22343 245 ft 18 kts 47°
2026-04-19 19:51 -8.86694 13.22441 245 ft 21 kts 46°
2026-04-19 19:51 -8.86623 13.22514 245 ft 22 kts 47°
2026-04-19 19:52 -8.86464 13.22651 244 ft 22 kts 22°
2026-04-19 19:52 -8.86310 13.22677 243 ft 22 kts 340°
2026-04-19 19:52 -8.86294 13.22671 243 ft 0 kts 325°
2026-04-19 19:53 -8.86304 13.22678 244 ft 0 kts 278°
2026-04-19 19:53 -8.86305 13.22684 243 ft 0 kts 287°
2026-04-19 19:53 -8.86304 13.22683 243 ft 0 kts 316°
2026-04-19 19:53 -8.86296 13.22683 243 ft 2 kts 359°
2026-04-19 19:54 -8.86272 13.22684 243 ft 5 kts 358°
2026-04-19 19:54 -8.86237 13.22695 243 ft 6 kts 38°
2026-04-19 19:54 -8.86181 13.22744 243 ft 17 kts 43°
2026-04-19 19:54 -8.86067 13.22863 243 ft 25 kts 46°
2026-04-19 19:55 -8.86031 13.22887 243 ft 0 kts 40°
2026-04-19 19:55 -8.86048 13.22876 243 ft 2 kts 54°
2026-04-19 19:55 -8.86024 13.22920 243 ft 10 kts 53°
2026-04-19 19:55 -8.85971 13.22975 243 ft 12 kts 43°
2026-04-19 19:56 -8.85900 13.23036 243 ft 16 kts 30°
2026-04-19 19:56 -8.85751 13.23057 243 ft 26 kts
2026-04-19 19:56 -8.85561 13.23063 243 ft 28 kts
2026-04-19 19:56 -8.85410 13.23067 246 ft 14 kts
2026-04-19 19:57 -8.85303 13.23071 247 ft 18 kts
2026-04-19 19:57 -8.85157 13.23080 244 ft 22 kts 11°
2026-04-19 19:57 -8.85069 13.23179 243 ft 20 kts 68°
2026-04-19 19:57 -8.85010 13.23285 243 ft 15 kts 63°
2026-04-19 19:58 -8.84968 13.23388 243 ft 17 kts 69°
2026-04-19 19:58 -8.84938 13.23472 243 ft 4 kts 78°
2026-04-19 19:58 -8.84936 13.23485 243 ft 6 kts 79°
2026-04-19 19:58 -8.84918 13.23552 243 ft 9 kts 68°
2026-04-19 19:59 -8.84892 13.23613 243 ft 10 kts 64°
2026-04-19 19:59 -8.84878 13.23644 243 ft 6 kts 78°
2026-04-19 19:59 -8.84888 13.23672 243 ft 6 kts 123°
2026-04-19 19:59 -8.84895 13.23681 243 ft 0 kts 124°
2026-04-19 20:00 -8.84897 13.23685 243 ft 3 kts 124°
2026-04-19 20:01 -8.84928 13.23732 243 ft 3 kts 123°
2026-04-19 20:01 -8.84938 13.23747 242 ft 6 kts 123°
2026-04-19 20:01 -8.84940 13.23792 242 ft 3 kts 41°
2026-04-19 20:01 -8.84917 13.23797 242 ft 6 kts 355°
2026-04-19 20:02 -8.84889 13.23775 243 ft 2 kts 308°
2026-04-19 20:02 -8.84889 13.23774 243 ft 0 kts 308°
2026-04-19 20:02 -8.84882 13.23765 243 ft 0 kts 307°